Total_Precipitation_Accumulation
1.50 1.56 1.67 1.87 2.07 2.10 2.02 1.86 1.70 1.66 1.63 1.58 1.59 1.66 1.66 1.56 1.52 1.61 1.59 1.51 1.56 1.58 1.59 1.63 1.65 1.64 1.66 1.57 1.54 1.54 1.51 1.60 1.63 1.07 0.89 0.94 1.14 1.23 1.23 1.20 1.26 1.31 1.32
1.45 1.50 1.56 1.64 1.81 2.04 1.96 1.79 1.63 1.60 1.61 1.58 1.52 1.55 1.59 1.59 1.55 1.57 1.56 1.49 1.47 1.50 1.54 1.54 1.54 1.56 1.61 1.54 1.50 1.45 1.38 1.33 1.41 1.24 0.98 0.98 1.07 1.15 1.25 1.33 1.32 1.33 1.28
1.39 1.49 1.49 1.53 1.63 1.74 1.83 1.76 1.63 1.55 1.55 1.57 1.57 1.54 1.56 1.60 1.60 1.52 1.53 1.49 1.42 1.41 1.43 1.46 1.45 1.54 1.62 1.55 1.51 1.43 1.31 1.22 1.23 1.27 1.11 1.01 1.07 1.12 1.30 1.46 1.46 1.47 1.40
1.28 1.37 1.40 1.40 1.44 1.49 1.58 1.74 1.73 1.63 1.52 1.46 1.46 1.51 1.60 1.75 1.80 1.75 1.75 1.61 1.48 1.42 1.36 1.33 1.36 1.50 1.58 1.63 1.69 1.56 1.45 1.43 1.42 1.45 1.33 1.20 1.20 1.21 1.41 1.67 1.78 1.73 1.64
1.14 1.23 1.32 1.36 1.43 1.46 1.42 1.51 1.70 1.67 1.52 1.43 1.41 1.47 1.57 1.93 2.33 2.33 2.21 1.89 1.58 1.41 1.31 1.29 1.35 1.51 1.59 1.80 1.98 1.88 1.85 1.93 1.86 1.82 1.68 1.57 1.48 1.51 1.59 1.62 1.81 1.84 1.84
1.03 1.15 1.26 1.35 1.48 1.48 1.41 1.45 1.59 1.67 1.61 1.51 1.44 1.45 1.50 1.79 2.52 2.66 2.27 1.78 1.56 1.41 1.34 1.28 1.29 1.45 1.50 1.64 1.86 1.98 2.06 2.20 2.28 2.23 2.07 1.88 1.61 1.50 1.53 1.68 1.79 1.99 2.08
1.01 1.09 1.18 1.26 1.42 1.46 1.44 1.50 1.55 1.62 1.70 1.70 1.54 1.42 1.38 1.58 2.30 2.48 2.19 1.71 1.52 1.42 1.34 1.32 1.32 1.37 1.46 1.42 1.56 1.66 1.71 1.88 2.12 2.26 2.31 1.86 1.59 1.51 1.75 1.95 1.91 1.99 1.95
1.07 1.10 1.17 1.20 1.26 1.39 1.47 1.49 1.51 1.53 1.58 1.65 1.60 1.49 1.38 1.45 2.05 2.26 2.09 1.72 1.56 1.46 1.35 1.32 1.32 1.33 1.43 1.65 1.61 1.56 1.47 1.50 1.71 1.91 2.19 2.02 1.80 1.83 2.18 2.51 2.60 2.46 2.04
1.14 1.15 1.14 1.11 1.16 1.29 1.38 1.46 1.49 1.51 1.46 1.47 1.47 1.47 1.42 1.41 1.80 2.10 1.95 1.62 1.57 1.47 1.35 1.32 1.34 1.32 1.60 1.89 1.79 1.62 1.43 1.34 1.46 1.80 2.11 2.26 2.32 2.46 2.70 3.02 3.18 3.01 2.52
1.12 1.16 1.09 1.01 1.01 1.06 1.17 1.34 1.44 1.46 1.39 1.38 1.40 1.40 1.34 1.29 1.59 1.90 1.91 1.58 1.49 1.42 1.35 1.32 1.47 1.56 1.78 1.91 1.74 1.69 1.78 1.52 1.35 1.43 1.53 1.65 1.72 1.88 2.30 2.58 2.90 3.03 2.64
1.10 1.15 1.06 0.98 0.98 1.00 1.08 1.25 1.38 1.44 1.42 1.35 1.30 1.32 1.27 1.26 1.40 1.63 1.87 1.66 1.49 1.43 1.39 1.33 1.33 1.62 1.73 1.81 1.84 1.76 2.00 1.88 1.58 1.59 1.56 1.50 1.49 1.59 1.78 2.08 2.50 2.90 2.96
1.11 1.11 1.09 1.06 1.02 1.04 1.09 1.22 1.36 1.43 1.48 1.42 1.31 1.29 1.27 1.27 1.37 1.52 1.73 1.77 1.65 1.43 1.32 1.19 1.25 1.55 1.64 1.75 1.75 1.84 1.97 1.90 1.68 1.63 1.55 1.47 1.47 1.51 1.59 1.74 2.08 2.38 2.54
1.08 1.12 1.12 1.13 1.10 1.11 1.15 1.23 1.36 1.43 1.47 1.44 1.34 1.27 1.26 1.21 1.36 1.63 1.57 1.63 1.69 1.47 1.31 1.42 1.49 1.62 1.64 1.55 1.62 1.73 1.72 1.63 1.70 1.71 1.55 1.42 1.42 1.53 1.60 1.66 1.82 2.11 2.29
0.96 1.07 1.08 1.11 1.16 1.21 1.24 1.25 1.33 1.43 1.49 1.39 1.31 1.23 1.17 1.19 1.41 1.59 1.53 1.52 1.62 1.58 1.51 1.58 1.66 1.64 1.54 1.43 1.47 1.48 1.41 1.51 1.67 1.65 1.50 1.35 1.33 1.47 1.65 1.75 1.86 2.01 2.24
0.88 1.01 1.11 1.15 1.19 1.26 1.28 1.29 1.36 1.36 1.51 1.48 1.34 1.25 1.27 1.37 1.55 1.72 1.67 1.60 1.61 1.61 1.69 1.76 1.71 1.61 1.57 1.44 1.32 1.25 1.29 1.46 1.59 1.47 1.44 1.41 1.39 1.44 1.53 1.65 1.88 2.03 2.18
0.89 0.96 1.08 1.17 1.17 1.17 1.19 1.24 1.40 1.43 1.46 1.41 1.35 1.31 1.23 1.40 1.56 1.64 1.74 1.76 1.79 1.87 1.89 1.80 1.58 1.43 1.38 1.33 1.31 1.28 1.22 1.25 1.32 1.39 1.43 1.44 1.44 1.47 1.49 1.51 1.70 1.96 2.11
0.88 0.94 1.02 1.11 1.11 1.08 1.06 1.07 1.18 1.35 1.46 1.44 1.39 1.33 1.32 1.40 1.46 1.56 1.70 1.82 1.87 1.87 1.78 1.55 1.35 1.26 1.24 1.22 1.21 1.20 1.18 1.11 1.15 1.27 1.32 1.36 1.43 1.48 1.51 1.53 1.59 1.75 1.93
0.86 0.97 1.01 1.04 1.07 1.06 1.06 1.04 1.04 1.14 1.29 1.37 1.39 1.35 1.32 1.37 1.43 1.54 1.70 1.83 1.90 1.73 1.49 1.40 1.30 1.20 1.18 1.21 1.24 1.23 1.19 1.17 1.20 1.23 1.26 1.27 1.36 1.49 1.53 1.51 1.52 1.66 1.82
0.92 0.97 0.96 1.00 1.04 1.07 1.08 1.11 1.11 1.13 1.17 1.23 1.29 1.43 1.52 1.50 1.53 1.61 1.64 1.58 1.53 1.41 1.32 1.30 1.25 1.23 1.22 1.23 1.26 1.27 1.28 1.26 1.23 1.24 1.25 1.24 1.26 1.39 1.43 1.37 1.41 1.55 1.74
0.97 1.09 1.05 1.04 1.07 1.09 1.11 1.17 1.22 1.24 1.24 1.22 1.23 1.35 1.55 1.72 1.71 1.68 1.55 1.43 1.40 1.28 1.23 1.27 1.27 1.26 1.27 1.28 1.29 1.31 1.30 1.26 1.23 1.23 1.21 1.20 1.22 1.28 1.32 1.33 1.40 1.50 1.56
0.93 1.03 1.11 1.07 1.05 1.07 1.11 1.16 1.21 1.28 1.29 1.21 1.15 1.26 1.55 1.67 1.58 1.42 1.37 1.38 1.44 1.41 1.34 1.32 1.31 1.29 1.28 1.31 1.33 1.31 1.28 1.21 1.15 1.16 1.16 1.16 1.21 1.27 1.25 1.29 1.34 1.42 1.50
0.92 0.99 1.01 1.03 1.05 1.10 1.16 1.16 1.22 1.28 1.27 1.22 1.20 1.27 1.45 1.39 1.38 1.35 1.31 1.31 1.39 1.45 1.44 1.44 1.40 1.33 1.33 1.39 1.42 1.41 1.30 1.16 1.08 1.10 1.14 1.14 1.16 1.20 1.23 1.26 1.26 1.33 1.44
0.98 1.03 1.04 1.02 1.03 1.16 1.22 1.18 1.20 1.25 1.28 1.27 1.26 1.28 1.31 1.30 1.30 1.35 1.38 1.38 1.43 1.44 1.39 1.40 1.40 1.32 1.25 1.26 1.30 1.39 1.40 1.22 1.11 1.15 1.25 1.23 1.19 1.19 1.23 1.26 1.24 1.28 1.36
1.02 1.06 1.07 1.04 1.05 1.09 1.15 1.19 1.19 1.22 1.26 1.30 1.30 1.31 1.32 1.31 1.30 1.33 1.39 1.45 1.48 1.45 1.38 1.37 1.33 1.28 1.22 1.19 1.16 1.16 1.19 1.23 1.28 1.28 1.28 1.32 1.26 1.19 1.23 1.26 1.22 1.24 1.33
1.03 1.04 1.06 1.06 1.08 1.10 1.15 1.18 1.19 1.20 1.23 1.25 1.28 1.31 1.32 1.32 1.33 1.33 1.35 1.38 1.39 1.37 1.31 1.29 1.29 1.28 1.23 1.17 1.13 1.10 1.21 1.31 1.38 1.48 1.51 1.44 1.31 1.22 1.25 1.25 1.21 1.22 1.29
0.98 1.00 1.03 1.07 1.11 1.13 1.20 1.25 1.22 1.20 1.25 1.25 1.26 1.29 1.32 1.34 1.33 1.28 1.25 1.26 1.28 1.25 1.21 1.19 1.18 1.21 1.21 1.19 1.17 1.24 1.33 1.29 1.32 1.42 1.55 1.55 1.37 1.20 1.21 1.25 1.19 1.21 1.26